RH
33 34 32 29 26 22 18 17 15 15 15 14 14 14 24 41 50 53 58 59 38 20 19 14 14 15 13 15 15 18 19 16 21 24 24 26 22 20 18 17 16 13 12 11 12 16 19 22 21 20 17 19 23 19 23 31 32 41 50 51 48 39 32 26 19 19 24 23 21 20 19 21 20 18 21 24 24 25 25 24 22 21 25 32 38 39 38 36
23 29 29 26 27 24 19 17 14 14 14 14 14 11 17 31 40 45 41 31 22 17 17 13 13 14 13 16 16 17 16 14 22 24 21 21 19 18 17 17 16 13 12 11 15 20 19 18 18 19 17 16 18 19 24 27 28 35 41 43 39 31 24 19 16 17 19 18 20 23 20 17 16 15 16 18 19 18 19 19 17 15 15 20 30 39 41 40
16 24 26 23 23 22 19 17 14 12 13 13 14 12 13 25 33 34 30 23 20 14 12 13 12 12 13 14 15 15 14 15 20 20 20 19 16 17 18 17 15 13 12 11 13 15 16 15 16 18 16 15 15 18 23 21 23 29 34 37 31 23 19 16 13 13 18 21 22 25 21 15 14 14 14 16 19 19 18 18 15 13 12 13 18 26 35 43
13 17 22 22 20 19 17 15 13 12 13 13 13 14 11 16 23 26 26 24 19 14 12 13 11 11 12 12 13 14 15 18 20 19 20 18 16 18 17 15 13 13 12 11 11 12 15 15 15 16 15 15 13 15 18 18 20 23 26 30 24 18 18 16 13 14 21 23 24 24 21 16 14 14 15 16 20 19 16 15 14 14 14 13 13 14 21 37
12 14 18 18 18 16 13 13 12 12 14 14 13 14 12 11 14 18 21 20 16 13 12 12 12 11 10 10 11 12 17 24 22 19 19 17 17 17 16 14 13 13 12 12 16 18 17 16 15 15 15 14 13 14 15 15 16 18 20 21 17 15 16 14 13 18 22 20 21 21 19 16 14 15 16 16 18 18 14 14 13 14 14 13 14 14 15 25
12 13 14 14 14 13 11 11 12 13 13 14 14 13 13 12 12 12 12 13 14 13 12 12 12 11 10 10 11 11 18 26 21 18 18 15 16 17 15 13 13 14 13 14 20 21 18 17 16 15 15 15 13 13 13 12 13 19 20 17 15 13 11 11 12 17 19 16 18 20 17 15 15 16 16 15 16 14 13 13 12 12 12 13 13 15 18 20
10 11 12 13 12 11 10 11 12 13 12 12 13 13 14 12 12 12 10 10 12 13 12 12 12 11 11 10 10 11 16 23 20 17 16 13 15 16 14 14 15 15 16 20 20 18 17 16 15 13 13 14 12 11 11 11 11 17 19 15 14 13 11 12 13 15 15 16 17 18 17 16 17 17 15 15 14 13 13 12 12 12 11 13 14 14 17 21
11 11 12 13 12 12 11 12 12 11 11 10 10 12 14 13 12 12 11 10 10 12 12 13 12 11 12 9 12 17 19 21 19 15 14 13 15 15 13 14 16 17 19 22 18 16 16 14 13 13 13 13 12 12 12 13 13 15 16 13 13 14 13 13 13 14 13 14 16 17 16 17 17 16 15 14 13 12 12 13 12 12 12 13 13 13 15 17
12 13 13 13 12 12 12 11 11 10 10 10 10 11 13 14 13 12 12 12 11 11 11 12 12 12 12 9 16 25 22 19 18 14 14 16 17 15 14 16 17 20 21 20 18 18 16 14 15 14 14 14 12 12 12 16 18 15 16 15 13 13 14 14 13 12 12 12 13 15 15 16 15 15 14 12 11 11 12 13 12 12 12 13 14 14 15 16
13 13 13 13 12 12 11 11 11 12 12 11 12 12 13 14 13 12 12 12 12 12 11 11 11 11 11 10 18 23 18 17 16 16 18 19 19 17 15 17 19 21 21 19 19 18 17 17 17 15 16 15 15 15 13 17 20 17 18 16 14 14 14 14 13 12 12 12 13 15 16 16 14 15 16 12 10 12 12 12 11 11 12 12 14 16 18 20
13 13 13 13 13 12 10 12 13 13 13 12 13 13 14 14 13 13 12 12 13 12 12 10 10 10 11 17 20 19 17 17 17 18 19 19 20 20 18 17 16 18 21 20 18 19 19 18 18 17 18 18 19 16 14 18 19 18 18 16 15 14 13 13 12 11 11 13 14 15 17 16 15 17 16 11 10 12 12 11 12 12 14 15 16 20 22 24
13 13 13 13 13 11 10 12 13 13 13 12 12 13 13 14 13 13 13 13 13 13 13 10 11 9 15 25 21 17 18 16 15 16 16 19 21 19 19 19 15 15 18 19 20 20 19 19 19 18 17 20 20 19 21 21 21 19 16 18 17 14 15 14 12 13 12 14 15 17 20 17 17 18 13 10 11 12 13 13 15 16 18 19 20 25 27 25
13 13 13 14 12 10 11 11 11 12 13 12 12 13 13 13 13 13 13 13 13 13 12 10 10 9 18 28 20 17 18 14 14 15 17 20 21 19 18 18 15 13 14 16 20 21 20 19 20 19 19 22 20 22 25 21 20 20 17 19 21 22 21 14 14 16 14 16 15 17 23 17 14 17 12 12 13 13 15 17 19 21 23 24 25 30 31 27
13 13 13 13 12 13 12 11 10 10 11 11 11 12 12 13 13 14 13 13 13 12 11 11 11 12 22 27 22 20 18 16 17 18 20 21 20 20 19 17 15 13 12 14 18 19 19 20 21 20 20 22 20 22 25 21 19 19 22 26 27 32 28 15 15 16 13 18 16 18 27 20 13 14 12 13 14 14 18 22 25 27 29 31 32 35 38 36
12 13 14 13 13 15 14 13 12 10 10 10 10 10 10 12 12 12 12 11 11 10 10 9 11 22 30 26 23 23 19 19 20 19 19 19 18 18 19 20 17 15 13 14 16 16 18 21 22 21 22 23 23 26 28 25 21 20 31 36 30 33 28 15 15 14 14 19 16 21 30 21 12 14 14 14 15 18 22 26 30 33 35 37 39 40 43 45
12 13 14 14 14 16 15 15 14 12 12 11 11 11 10 11 10 11 10 10 11 10 16 20 18 26 32 26 23 22 20 21 20 19 17 16 17 15 16 18 18 18 16 15 15 14 18 21 21 23 23 22 22 26 30 30 26 24 33 37 31 29 25 17 18 16 15 19 18 20 25 20 13 13 16 17 19 23 26 30 33 37 40 41 43 44 46 48
12 13 14 14 15 16 15 15 15 14 14 13 14 13 13 13 13 14 13 13 15 14 22 33 29 27 28 24 22 20 20 22 19 18 16 14 15 14 14 16 19 20 19 19 18 18 21 21 21 23 21 21 22 24 33 36 30 27 30 33 30 25 21 20 22 21 17 19 20 20 24 22 16 16 19 22 25 28 30 33 37 39 43 44 46 48 49 50
12 13 15 16 16 16 15 16 15 15 17 17 18 17 16 16 15 17 18 17 19 20 24 28 27 33 32 23 19 19 20 20 18 18 16 14 14 13 13 15 19 19 18 21 21 20 21 19 20 24 24 24 24 27 37 37 29 30 30 31 32 27 24 21 20 23 22 24 26 24 27 23 16 19 24 27 29 33 35 36 39 42 45 47 48 50 51 53
11 12 15 16 17 16 16 16 16 18 22 22 21 20 19 19 18 19 19 19 26 33 34 30 28 33 31 21 18 20 20 18 17 17 16 15 15 14 14 15 17 17 17 20 20 19 20 22 25 31 34 29 24 26 33 30 24 27 28 32 36 32 28 21 19 27 27 31 33 29 28 21 16 22 27 31 33 35 38 39 42 44 46 49 51 53 54 55
11 12 14 17 17 17 17 17 18 22 27 24 24 34 36 30 30 31 26 24 29 33 33 32 29 26 23 21 21 20 19 18 17 18 17 15 14 15 16 16 16 16 17 20 23 22 23 28 33 35 33 25 20 20 21 20 18 21 27 32 35 33 29 19 22 33 32 34 32 25 25 18 16 25 29 33 37 38 40 42 44 45 47 51 52 54 56 57
11 11 12 16 17 18 18 18 20 23 26 22 22 42 47 31 33 37 32 35 33 24 24 26 24 23 22 21 22 20 19 18 17 18 17 15 15 15 15 15 15 17 19 19 23 26 27 32 34 28 22 18 18 17 17 20 21 25 31 34 35 35 29 20 26 34 31 33 30 22 22 19 21 30 32 35 40 41 42 43 45 47 48 52 53 56 57 59
10 11 12 14 17 18 18 19 20 19 20 18 19 41 43 23 25 26 22 34 34 21 23 25 22 23 22 20 21 20 20 18 17 19 17 15 18 17 15 15 14 17 22 21 23 30 33 34 28 20 17 18 17 17 20 27 30 32 33 36 38 36 28 28 34 32 26 33 33 26 23 21 26 33 34 38 42 43 46 47 48 49 50 52 55 57 60 62
10 11 10 13 17 18 18 20 20 18 18 17 24 42 38 19 20 20 20 34 35 26 27 28 24 22 20 20 20 19 20 18 17 20 18 16 18 18 16 16 16 17 19 20 23 27 30 29 23 20 22 21 18 18 24 32 36 36 36 36 36 35 33 36 36 29 25 30 29 26 28 28 31 36 37 39 42 44 47 48 50 51 51 53 56 59 62 64
11 11 10 13 16 18 19 18 17 18 19 17 21 28 25 18 19 20 25 33 34 31 27 23 22 22 21 20 19 20 21 19 18 20 19 18 19 19 17 19 20 20 20 23 25 25 26 24 22 24 24 21 23 25 26 33 36 34 39 41 35 35 35 33 30 26 24 27 29 29 33 35 34 40 43 40 41 44 46 48 50 51 53 54 57 60 63 66
10 10 11 12 14 18 18 16 17 16 18 21 21 20 18 20 21 19 26 34 34 33 31 27 24 21 20 21 23 23 22 21 21 21 19 19 21 21 21 22 20 24 31 34 30 27 26 24 23 26 24 21 28 33 32 35 33 29 39 44 35 31 33 31 30 31 28 27 34 36 34 34 34 39 44 42 44 46 47 49 50 51 54 56 59 62 64 66
10 10 12 11 13 15 14 18 22 18 19 23 23 21 18 20 21 18 28 39 36 34 37 34 29 25 22 24 25 24 29 28 22 21 20 21 22 22 24 24 20 26 35 35 30 29 26 22 25 27 26 28 34 37 33 32 32 30 38 44 38 33 36 35 33 37 35 27 30 33 30 32 34 37 41 43 48 51 49 50 51 52 55 58 61 63 65 67
10 10 11 11 12 12 16 29 30 22 23 27 25 19 17 21 21 21 35 44 38 38 38 31 30 28 25 26 23 25 36 34 26 26 22 22 24 23 27 29 27 28 30 29 30 32 28 25 30 30 29 33 35 34 32 32 34 35 38 42 41 36 36 37 36 39 35 27 28 29 28 33 33 36 42 44 49 53 53 54 53 54 58 60 63 64 67 69
10 11 11 12 12 12 19 30 27 21 23 27 24 17 19 22 19 28 46 44 34 37 36 29 28 26 26 29 24 25 33 28 29 33 23 21 26 25 30 34 34 33 30 30 33 35 36 35 37 37 34 34 33 31 33 37 37 39 43 44 41 39 37 37 38 38 32 33 36 29 29 36 36 41 43 42 52 58 58 58 56 56 60 61 64 66 67 70
10 11 12 13 14 13 17 22 20 20 20 20 22 20 21 22 24 40 45 34 31 37 35 31 30 27 28 33 27 24 27 23 27 31 24 24 25 24 32 33 32 35 32 32 35 36 39 36 33 36 36 34 33 32 38 42 39 40 46 47 46 46 45 43 41 37 32 41 45 30 27 35 36 42 41 41 58 65 60 60 57 55 59 63 64 67 69 70
10 11 12 13 15 13 14 15 14 18 18 18 25 23 19 24 38 46 36 28 37 40 34 31 33 31 30 35 32 25 26 26 25 29 29 29 26 23 30 30 29 37 40 40 42 41 39 37 34 38 37 33 31 32 38 42 38 40 44 42 40 36 37 42 39 32 36 47 42 27 27 31 32 46 55 57 65 67 62 61 58 54 58 63 65 67 69 70
10 12 12 13 15 13 16 22 19 16 18 22 25 23 25 39 45 38 29 31 39 37 34 34 35 36 34 37 36 29 32 31 26 32 34 31 29 25 29 34 33 40 41 39 45 49 45 42 40 40 34 31 36 37 39 43 41 42 42 33 30 27 24 31 31 31 47 53 33 21 26 27 33 53 64 64 61 60 64 64 60 58 59 63 66 68 71 71
10 13 14 15 17 14 22 36 29 16 20 25 24 26 38 47 40 31 31 35 40 39 39 41 37 36 40 39 35 35 40 34 25 33 37 33 34 34 35 39 40 43 38 28 34 42 42 41 41 42 35 32 40 37 35 43 40 37 34 28 35 37 29 32 35 34 44 42 23 19 25 26 40 58 59 57 57 55 59 61 60 62 62 64 67 70 72 72
11 13 15 17 19 16 21 31 26 20 24 24 23 31 40 38 34 38 35 31 40 40 38 44 41 36 40 36 33 37 40 35 30 34 38 36 37 39 39 38 40 42 36 28 29 31 36 42 41 41 39 35 35 26 24 31 29 27 28 28 38 42 42 48 43 35 38 33 20 19 25 28 46 63 57 51 54 51 53 57 59 62 64 66 68 70 71 71
12 16 18 19 21 19 22 25 24 24 24 23 29 39 37 29 31 42 38 32 39 39 38 46 43 38 37 33 34 38 36 36 35 32 34 33 31 35 37 37 38 37 34 34 31 31 38 42 37 34 33 34 33 26 27 33 33 30 24 25 33 34 45 55 46 41 45 38 27 25 31 41 55 64 58 50 50 50 53 56 58 60 61 63 63 63 65 65
15 18 21 21 21 22 25 26 24 23 22 27 38 42 36 28 28 37 44 43 40 38 41 46 43 39 35 33 37 39 34 34 32 31 33 32 32 36 37 37 38 36 38 40 34 33 36 33 35 36 29 29 32 30 32 38 37 28 20 27 35 31 37 48 44 40 42 43 40 30 34 56 68 60 50 49 50 52 55 55 55 57 57 57 58 56 56 57
19 20 21 22 22 23 25 26 24 20 24 35 42 39 37 38 38 41 50 51 45 44 47 45 42 37 30 30 34 37 36 34 33 32 33 38 42 42 40 38 36 34 39 43 39 39 36 29 32 40 35 28 29 32 35 38 33 25 23 31 37 32 30 41 44 34 35 48 44 25 29 55 68 60 50 51 54 53 55 56 55 55 54 54 55 53 50 51
21 21 19 19 20 21 24 26 23 18 24 38 44 38 35 43 50 51 54 51 45 50 48 40 39 35 29 29 30 35 38 35 34 30 28 37 46 46 43 39 33 30 33 39 40 39 41 37 30 33 38 31 28 33 36 36 33 26 25 28 34 37 29 32 44 44 47 51 37 24 26 37 57 68 60 56 59 57 55 56 55 53 52 51 50 47 46 47
22 28 22 17 19 19 21 24 21 21 29 37 43 43 43 50 56 57 62 59 51 51 44 35 37 35 32 33 32 35 39 36 33 27 24 33 42 46 47 42 35 31 32 37 39 36 41 45 34 25 33 35 36 39 35 33 36 32 30 28 35 51 50 41 45 49 55 52 39 34 28 35 66 81 69 63 65 62 58 58 59 55 51 49 45 43 44 45
29 41 30 16 18 17 17 19 19 25 33 36 41 47 51 59 63 62 64 63 56 50 42 36 37 34 35 39 36 34 38 38 33 27 29 36 44 49 46 42 42 39 39 42 42 37 37 45 42 28 28 34 36 35 29 28 34 35 36 30 29 44 51 47 44 45 53 56 53 48 37 53 82 78 65 65 61 60 61 61 61 55 49 45 41 43 44 44
34 44 30 16 19 19 19 22 24 31 40 43 45 49 54 61 65 63 60 61 58 50 44 42 40 37 38 40 37 34 35 35 31 28 33 39 48 53 47 44 51 52 49 45 41 39 36 39 41 32 26 27 28 27 24 23 28 34 37 36 40 44 42 45 44 39 50 62 66 64 54 65 78 62 56 63 58 59 62 63 63 51 43 42 38 41 45 44
34 44 32 17 19 22 25 29 29 32 41 48 49 54 61 63 62 60 56 56 55 47 44 46 45 41 41 39 38 38 35 31 29 30 35 42 49 54 52 51 57 58 54 49 43 42 40 36 36 36 30 25 26 26 25 26 26 29 32 34 43 49 49 59 55 40 50 61 66 71 64 66 73 59 53 57 49 46 47 53 57 45 37 39 35 37 41 41
33 41 32 19 20 26 30 35 36 34 40 53 58 59 61 57 53 54 52 50 49 44 41 44 46 45 45 44 41 41 40 35 33 33 38 48 52 54 56 56 53 51 52 54 48 42 41 40 40 41 32 26 30 28 28 35 31 27 30 32 40 49 53 64 63 55 64 62 56 63 62 69 80 63 47 45 33 29 34 41 46 39 33 34 32 36 39 39
33 34 25 17 21 26 33 42 46 48 53 58 59 58 57 53 49 50 51 50 48 43 38 41 47 48 47 47 43 44 47 42 40 38 38 48 57 56 55 54 49 46 52 60 57 46 41 42 43 40 27 23 32 30 29 37 34 25 28 38 52 61 61 66 67 70 81 74 65 73 73 76 78 53 33 31 26 25 34 39 39 35 30 28 30 35 39 41
30 32 24 18 19 24 38 48 48 54 57 52 53 58 56 52 54 56 56 55 52 44 40 42 47 47 45 44 42 43 46 43 43 43 37 44 57 58 52 49 48 50 54 57 56 51 46 40 39 42 36 30 33 33 32 36 30 17 23 49 68 69 70 75 72 76 84 74 73 90 88 69 54 38 28 27 26 30 36 39 37 34 31 31 32 36 40 42
30 32 27 22 20 24 40 46 44 52 55 50 52 55 51 49 54 57 55 54 50 42 39 42 46 45 42 42 42 40 36 37 40 40 39 45 53 54 51 48 46 49 51 45 39 47 54 42 34 43 51 47 43 42 39 35 27 15 26 61 76 70 73 75 72 81 85 75 78 92 86 60 39 32 31 26 27 35 40 40 37 34 35 37 37 40 42 41
30 33 31 28 26 30 38 36 33 42 48 48 47 43 45 51 53 51 51 51 48 41 38 38 40 41 40 40 43 37 31 36 43 44 46 47 45 47 51 48 42 41 45 38 29 40 51 43 35 41 49 48 42 37 29 26 27 22 32 61 69 65 71 71 74 82 81 84 88 75 63 59 45 33 31 29 29 35 37 35 35 36 39 40 42 44 44 43
31 41 42 37 34 35 38 35 35 39 40 42 44 40 43 51 49 43 41 41 41 40 40 40 40 41 41 42 44 38 32 39 48 51 50 45 41 43 47 46 40 36 39 34 26 34 41 41 46 48 45 41 33 27 24 25 26 21 28 49 56 58 70 79 83 75 67 87 93 58 45 58 49 35 35 35 34 34 33 33 36 38 40 41 44 45 47 46
35 43 39 42 48 46 46 46 43 43 40 36 40 43 43 48 50 45 42 39 35 33 36 44 47 42 40 41 40 37 36 38 48 56 53 49 51 50 47 48 41 33 34 32 28 33 40 47 53 50 42 36 28 26 27 26 25 23 27 41 47 53 68 83 86 68 59 80 81 50 43 52 46 40 38 35 35 35 34 35 37 38 39 42 46 48 49 50
30 33 30 37 47 45 47 47 38 39 42 36 41 48 45 48 53 51 51 49 38 29 33 47 52 45 41 40 37 41 45 44 50 58 57 58 62 58 54 55 46 33 31 34 32 33 42 53 52 44 44 39 31 30 30 27 29 29 32 42 46 46 53 62 65 55 50 58 52 41 47 51 44 41 37 34 36 35 36 39 41 43 43 44 48 51 53 55
26 33 31 31 37 36 37 40 34 34 37 34 42 50 45 48 52 48 49 49 42 39 42 49 52 47 41 41 44 50 54 54 56 57 57 63 65 60 56 56 52 44 39 41 41 36 43 54 47 40 50 48 31 26 27 27 28 26 31 42 44 42 46 49 49 47 51 56 48 48 61 59 43 36 36 38 38 37 41 43 43 45 45 46 49 53 56 57
23 26 25 27 37 36 31 32 33 35 38 40 47 49 46 48 48 44 47 48 46 51 52 52 54 50 41 43 51 54 54 59 65 63 62 66 65 59 57 55 53 52 50 51 53 45 45 52 46 43 55 48 26 21 23 21 23 29 38 45 44 45 50 51 48 46 50 62 65 66 72 63 44 38 42 43 41 42 46 46 45 46 46 48 52 54 56 58
18 23 22 25 36 38 31 31 34 38 46 49 50 51 50 47 43 45 53 52 44 45 49 50 51 49 45 48 52 51 51 57 63 64 64 65 62 57 57 54 48 48 52 55 58 55 52 56 53 50 56 48 28 22 27 30 40 53 55 49 45 47 49 50 51 47 45 56 72 77 70 55 45 47 52 50 47 46 46 45 45 47 48 51 53 53 56 58
Wind_Speed
4 1 1 2 4 5 7 8 7 5 4 4 5 6 6 6 5 6 5 6 6 5 3 2 2 4 5 5 4 4 3 2 1 1 4 8 11 11 9 8 8 7 6 6 5 5 4 3 3 5 6 8 8 9 7 6 7 5 3 4 4 5 5 7 7 7 7 8 10 12 14 11 10 12 11 9 11 14 14 14 15 16 17 21 19 15 18 21
7 4 2 3 4 4 6 10 10 7 5 5 5 6 7 7 6 7 7 7 7 5 4 2 2 3 4 4 4 4 2 1 1 6 10 12 11 9 9 8 8 7 6 5 3 4 6 6 5 5 7 9 8 7 5 5 7 6 3 4 5 5 7 10 9 9 9 9 10 12 13 12 12 15 14 10 11 15 13 13 17 19 18 17 17 17 21 23
8 6 5 4 6 7 7 9 11 9 7 6 6 6 7 7 7 8 9 8 8 6 5 3 1 1 2 3 4 3 3 3 5 8 12 12 9 7 7 7 7 7 6 4 2 2 6 7 5 6 9 9 9 7 5 4 6 7 5 4 5 6 9 12 14 12 10 9 9 11 13 14 15 16 14 9 11 14 10 11 15 16 15 15 13 13 17 20
9 8 6 4 6 9 10 12 12 11 10 8 7 7 7 8 9 9 9 9 8 7 5 4 2 1 1 2 2 3 3 4 5 8 11 10 7 6 6 6 6 6 5 3 2 1 4 7 6 7 9 9 10 9 6 6 5 5 5 4 6 9 10 13 17 13 8 8 9 12 14 14 15 14 13 11 10 10 9 11 14 16 19 20 19 18 14 11
9 9 7 4 4 7 10 13 14 13 11 9 8 9 9 9 9 10 10 9 9 8 7 5 3 2 1 0 1 3 3 2 4 9 9 7 5 5 5 5 5 4 4 3 3 4 4 5 6 7 8 7 9 8 7 9 8 5 7 9 11 12 9 12 16 9 8 10 11 13 12 12 15 14 14 13 9 11 14 15 17 20 20 19 19 18 15 12
8 9 8 6 4 6 10 13 14 13 11 9 9 9 9 9 8 9 9 10 10 9 8 6 4 3 1 1 2 3 4 1 2 7 6 4 4 5 4 4 4 4 4 4 3 5 5 5 6 7 8 6 7 7 7 8 6 5 7 10 14 15 12 13 14 10 11 13 11 11 12 14 14 14 15 16 17 21 23 21 20 21 18 17 16 14 13 13
7 7 7 7 5 6 10 13 13 11 10 9 9 9 9 9 8 8 8 10 10 10 9 7 6 4 3 3 2 4 7 5 4 5 4 5 5 4 4 4 4 3 4 4 4 5 5 6 7 7 7 5 6 6 7 8 6 5 7 9 14 17 15 14 14 13 14 13 14 14 14 13 11 13 15 19 26 26 24 21 19 18 15 12 11 11 11 12
7 6 6 5 6 8 10 11 11 10 9 9 9 8 8 8 8 8 8 9 9 10 9 8 7 6 4 4 3 5 8 7 6 5 5 6 4 3 4 3 3 4 4 4 5 5 5 6 6 6 5 4 6 6 6 8 7 7 8 10 13 14 15 15 16 16 16 16 16 15 13 12 13 15 17 24 32 26 19 14 11 9 8 7 8 10 10 12
6 5 5 5 7 9 9 9 8 7 6 7 7 7 7 7 8 8 8 8 7 8 8 9 8 7 6 4 3 5 6 8 7 4 5 3 3 4 4 3 3 4 3 4 4 4 5 5 4 4 5 7 8 7 7 5 4 4 8 12 13 14 17 19 19 19 19 17 15 12 11 13 15 13 15 24 23 14 7 6 7 7 7 7 9 10 10 12
6 5 5 7 6 7 7 7 5 3 2 3 3 4 5 6 7 7 7 6 6 6 7 8 8 8 6 3 4 4 4 7 4 3 3 3 4 4 3 3 3 3 5 5 3 4 5 5 5 5 6 7 8 7 6 5 5 8 13 15 16 18 20 20 20 20 18 16 14 11 9 14 14 6 8 14 8 6 8 9 8 10 12 13 16 16 14 14
5 4 5 6 5 5 6 4 2 2 1 1 1 2 4 5 6 7 7 7 7 7 7 7 7 7 5 3 7 5 3 4 2 3 4 5 4 4 3 3 3 3 4 6 5 4 4 5 5 5 4 4 7 8 6 4 5 10 13 15 15 17 20 20 20 19 16 8 6 7 10 14 10 5 14 16 7 7 8 10 11 17 19 20 23 23 20 20
4 4 5 4 4 5 4 3 3 3 3 4 3 3 3 4 5 6 7 8 8 7 7 7 7 7 4 4 10 7 4 4 4 5 7 6 6 5 4 5 5 4 5 6 5 3 5 4 4 5 5 5 7 7 4 4 7 11 12 11 12 12 14 17 15 11 8 3 1 5 8 7 6 9 14 11 4 8 11 16 20 23 23 22 24 25 25 25
3 4 4 2 3 4 4 5 5 5 5 5 5 5 5 6 6 7 7 8 8 7 7 7 7 7 3 5 9 7 7 8 6 7 7 6 6 6 7 7 6 5 5 6 5 6 8 6 4 6 8 7 5 5 7 11 12 12 9 7 8 8 7 6 4 6 4 3 1 3 3 3 2 7 1 5 6 12 20 24 25 24 24 23 23 25 27 26
2 3 2 3 4 4 5 6 7 8 7 7 7 6 7 6 6 7 6 7 7 6 7 6 6 6 4 6 6 7 8 8 7 7 6 5 4 7 11 9 6 7 6 6 8 10 10 7 5 8 9 7 7 8 9 11 9 7 5 5 3 3 2 3 7 7 4 3 4 2 1 3 4 4 8 12 14 22 25 24 25 24 24 24 24 25 26 28
1 1 1 3 4 4 6 7 8 8 9 8 8 8 8 8 7 7 6 7 6 6 6 5 6 5 5 7 5 7 7 5 5 5 4 5 4 4 7 7 8 9 7 6 8 9 8 6 6 7 6 6 7 7 5 5 5 4 3 4 1 2 3 3 7 6 2 3 6 4 1 1 3 11 18 18 22 26 24 23 24 23 23 23 23 24 24 26
1 1 3 4 4 4 6 7 8 8 9 9 9 8 8 8 8 7 7 6 6 6 6 3 4 3 5 4 2 4 3 2 4 5 6 7 6 6 7 8 8 8 7 6 7 7 6 5 7 8 6 4 4 4 4 4 4 3 4 3 3 3 4 1 4 4 2 3 6 5 1 1 0 13 22 21 23 25 23 22 22 21 22 21 22 22 23 25
2 3 4 5 4 4 5 7 7 7 8 8 8 8 8 8 8 7 6 6 6 6 5 3 2 4 5 3 2 2 1 2 4 8 10 10 8 8 7 6 6 6 6 6 5 5 5 5 5 6 5 4 3 3 3 3 2 1 2 3 5 5 5 3 2 2 4 3 3 5 3 4 3 10 19 18 22 25 22 20 20 21 21 20 21 21 22 24
3 4 5 5 4 4 5 6 7 7 7 7 7 7 7 6 6 6 5 4 4 2 1 1 2 3 3 2 3 1 2 4 8 11 12 10 7 7 5 4 5 6 7 6 4 6 6 4 3 2 3 3 3 3 2 3 3 3 3 3 4 6 6 6 4 2 4 3 2 4 4 6 3 9 17 18 22 24 21 19 19 20 20 20 20 20 21 23
3 4 5 5 4 4 4 6 7 7 6 6 6 6 6 5 4 3 3 3 1 1 1 0 2 3 2 1 2 2 5 9 10 10 9 8 7 6 5 4 6 7 7 5 4 5 4 3 3 2 3 4 4 3 5 5 6 7 6 4 5 6 6 9 5 2 2 2 4 5 5 7 2 9 13 16 22 23 21 19 18 18 19 19 19 20 20 22
4 5 6 5 4 4 4 5 6 6 5 5 6 6 5 2 1 2 2 1 3 4 3 2 4 6 5 2 3 6 9 10 6 6 7 7 6 6 5 5 6 6 7 4 2 3 1 2 4 4 5 6 4 4 4 6 7 8 6 5 6 6 7 10 4 2 2 1 4 4 5 7 1 9 10 15 21 20 18 18 18 18 18 18 19 19 19 20
4 5 6 6 5 4 4 4 4 4 3 3 4 4 4 5 2 1 0 3 4 4 3 4 5 5 5 6 8 9 8 6 2 3 7 7 6 5 2 4 5 4 4 5 1 2 1 3 5 4 4 5 6 6 7 7 7 7 5 6 6 5 8 7 1 3 3 1 4 4 6 6 6 10 9 14 16 15 15 16 17 17 17 17 18 19 19 19
5 6 6 7 7 5 4 4 3 3 2 2 4 4 5 6 3 1 2 2 2 2 3 3 3 1 5 6 6 5 4 3 2 2 5 7 4 3 2 2 5 3 3 4 2 1 2 4 2 4 6 6 6 5 4 5 6 6 4 5 5 5 6 3 4 3 2 2 4 6 5 1 9 9 9 13 14 14 17 18 17 17 16 17 18 19 19 18
6 6 7 7 8 6 5 4 3 2 0 1 2 4 5 4 1 1 4 2 1 3 3 3 4 1 3 4 5 5 3 4 2 2 5 7 4 3 4 5 5 4 2 3 3 3 3 0 3 5 6 5 6 6 4 3 4 5 4 4 5 3 4 2 1 1 2 4 8 8 5 2 8 8 9 12 15 17 18 18 18 17 17 17 18 18 18 19
7 7 7 7 8 7 6 5 4 3 2 2 2 3 4 2 1 2 4 3 2 2 2 3 4 3 1 1 7 7 3 4 4 4 7 6 5 5 4 3 3 4 3 2 3 4 4 3 4 4 3 3 5 6 5 2 3 4 2 2 4 5 5 3 4 7 7 8 9 7 4 2 6 7 7 9 13 15 15 17 17 17 18 17 18 18 18 19
7 7 6 7 7 7 6 5 5 4 3 4 4 4 4 3 2 3 3 2 2 2 1 2 2 4 4 3 8 7 1 3 3 6 8 5 4 4 3 2 2 2 3 5 5 4 4 4 5 4 3 4 4 4 4 3 4 4 2 3 4 6 7 6 8 8 6 5 2 1 3 2 6 8 7 7 8 11 13 14 15 17 17 17 18 17 18 20
8 7 7 6 6 6 4 3 4 3 3 5 5 5 5 3 3 4 3 2 1 1 1 2 0 3 5 5 8 5 2 1 2 5 8 6 4 2 3 1 3 1 4 4 3 1 1 3 3 3 3 5 4 2 4 5 4 3 1 3 6 6 7 8 8 4 3 5 2 3 2 3 4 7 9 8 8 9 10 11 13 16 17 17 17 16 18 20
8 7 7 6 5 5 5 3 2 2 2 4 5 6 6 4 5 5 2 2 1 1 1 2 1 3 5 7 9 4 1 1 1 5 9 6 5 2 3 1 1 2 3 1 2 0 0 2 3 4 3 5 3 1 3 5 3 3 2 4 5 7 8 8 7 4 4 6 6 5 5 5 3 5 9 10 10 9 9 9 11 15 16 16 16 17 19 20
7 6 6 6 5 7 7 4 2 2 3 4 5 5 5 4 5 4 2 1 1 0 1 2 1 4 5 6 8 4 2 4 2 4 8 6 6 2 2 3 3 3 2 1 1 1 1 3 4 5 4 3 2 2 4 5 1 3 2 4 6 8 9 8 5 4 5 5 6 6 5 5 2 5 8 8 9 8 8 9 9 13 15 16 17 19 20 20
5 5 5 5 6 7 8 5 3 2 3 4 4 3 3 4 3 2 2 1 1 0 1 2 1 5 8 3 4 5 3 5 3 3 6 8 10 5 2 3 4 4 3 2 3 1 2 4 3 2 2 2 2 2 3 1 3 3 4 6 7 8 9 7 4 3 4 3 6 7 3 2 0 4 4 4 6 5 5 7 8 12 16 16 18 20 20 21
3 4 5 5 6 7 7 6 4 2 3 4 4 2 3 3 2 1 1 0 1 1 1 2 1 7 10 2 3 6 3 4 5 4 1 4 11 11 2 3 3 3 2 2 4 1 4 4 3 2 1 2 3 2 1 3 4 5 7 6 6 7 5 4 4 2 2 2 6 6 5 3 0 3 2 3 4 4 4 5 7 12 16 17 18 19 19 20
3 3 4 5 5 6 6 5 5 3 4 5 3 2 3 2 2 1 1 0 1 1 1 2 2 5 7 2 2 6 3 2 6 6 2 3 9 15 8 3 3 2 0 1 2 1 4 3 2 2 1 2 3 3 2 4 3 3 4 4 5 5 3 1 2 3 1 3 4 1 6 4 1 1 3 4 4 5 5 5 7 11 14 15 15 16 17 17
2 3 3 4 4 5 6 4 4 4 4 6 5 3 3 2 1 1 2 1 1 3 1 1 2 3 3 1 2 5 1 1 5 4 3 3 5 10 9 5 5 3 2 2 2 1 2 1 0 1 1 2 2 2 2 1 1 2 3 4 4 4 3 2 2 1 2 4 3 3 7 4 1 2 5 6 7 7 8 9 9 10 12 13 13 13 14 15
2 2 3 4 5 6 6 4 3 4 4 5 5 3 3 1 1 1 1 1 0 1 1 1 3 4 3 1 2 4 0 1 4 1 2 4 5 6 8 8 8 5 2 3 4 2 1 0 1 1 1 2 2 3 3 2 3 4 4 4 3 3 3 3 4 3 4 5 7 10 10 4 2 4 6 7 8 10 12 13 12 11 12 12 12 12 12 13
3 4 5 5 6 6 5 4 3 3 4 4 3 3 2 1 2 1 1 3 2 1 1 0 3 3 1 1 1 2 1 1 2 3 1 3 4 4 6 8 10 6 3 3 2 1 2 1 1 1 1 3 2 3 0 4 4 3 2 2 2 1 2 3 3 4 5 6 9 10 7 3 1 3 5 8 10 12 14 13 12 12 12 12 12 12 13 13
6 6 6 5 6 6 5 5 3 3 4 3 2 2 1 2 2 1 1 2 2 2 2 1 2 3 1 2 1 1 2 0 2 5 5 4 4 3 3 4 7 6 3 2 1 1 2 2 1 1 2 2 2 2 2 3 2 2 3 2 1 1 1 3 4 6 7 7 7 6 2 3 3 4 7 9 10 12 13 13 13 13 13 15 15 15 16 15
7 6 5 4 5 5 5 5 4 4 4 2 2 0 1 2 2 2 2 2 2 3 5 3 2 2 1 2 1 2 2 1 1 2 3 4 4 4 3 2 6 7 4 2 2 2 2 3 2 2 2 1 2 1 0 2 1 2 4 2 2 4 2 2 6 6 6 6 5 5 1 3 3 4 5 6 8 9 10 11 12 12 14 16 15 16 18 18
9 6 4 3 4 4 6 6 5 4 3 3 1 2 2 1 2 3 3 4 2 2 4 2 1 2 3 2 2 5 4 1 2 2 2 2 1 4 3 2 7 8 6 3 2 1 2 5 5 2 3 2 3 2 1 1 1 1 2 2 3 3 2 1 3 3 4 6 5 6 7 4 1 2 3 6 7 8 7 8 10 11 13 13 13 15 17 19
9 8 6 3 3 4 4 5 5 3 3 2 3 3 1 2 4 4 3 4 3 2 3 2 1 1 3 3 2 5 6 4 4 4 2 1 1 4 3 2 6 9 11 7 2 1 3 4 3 2 1 1 3 3 1 2 3 1 2 3 2 1 1 2 3 3 5 7 5 6 10 6 1 2 4 6 8 8 7 6 6 8 9 11 14 17 19 21
7 6 4 3 4 4 3 5 5 1 3 1 3 2 1 3 4 4 4 4 2 2 2 2 1 1 3 3 1 3 5 3 4 4 2 2 2 3 5 4 5 9 14 9 2 3 3 1 1 1 2 1 2 1 1 1 3 2 3 4 1 1 1 1 1 3 4 7 6 7 8 2 3 2 4 6 5 5 7 5 3 6 10 15 18 20 22 23
5 3 2 3 5 7 7 6 2 1 1 2 3 2 1 2 3 4 6 4 1 2 2 1 2 3 3 2 1 2 3 3 3 3 2 3 2 3 6 6 4 9 15 10 2 3 4 2 2 3 3 4 1 0 0 1 1 2 2 3 2 1 2 1 3 3 2 5 5 6 6 1 3 2 3 4 2 3 5 5 4 8 14 18 19 20 21 23
2 1 1 4 8 9 7 5 3 2 2 3 3 3 1 2 3 3 5 5 3 4 4 3 3 4 3 2 2 3 3 3 3 3 2 3 3 2 5 8 7 7 10 7 1 2 3 2 3 4 5 5 1 1 1 4 5 3 2 2 2 2 2 3 5 2 1 3 3 5 8 3 2 1 1 2 3 6 8 5 5 12 17 20 23 23 24 25
1 1 1 5 8 7 5 4 5 5 3 2 3 4 2 2 2 2 3 5 3 3 4 3 4 4 3 3 3 3 3 2 3 3 2 3 4 3 6 11 11 8 5 3 2 3 2 2 3 4 5 3 2 2 3 7 6 1 1 2 3 2 1 1 5 3 2 4 4 5 8 4 1 2 1 3 8 13 11 6 7 12 17 23 26 26 27 27
4 3 2 6 7 5 4 3 4 5 3 3 4 5 4 2 2 1 3 5 3 2 3 3 3 3 3 2 3 3 4 3 3 3 2 3 3 3 7 11 11 8 5 3 3 6 4 1 2 4 4 1 3 2 3 5 4 2 2 4 4 2 2 1 4 2 2 5 5 5 7 3 3 3 3 9 16 17 12 9 11 16 22 27 28 26 27 27
7 7 5 4 4 1 2 2 3 3 3 4 4 4 5 6 5 3 4 5 4 3 2 2 3 4 3 2 2 3 3 2 3 3 3 3 2 3 7 11 9 7 5 2 3 6 4 1 2 4 4 2 1 1 3 2 3 4 2 3 4 3 3 1 3 1 2 3 1 4 7 3 1 4 11 17 20 19 16 17 20 23 28 30 29 27 27 27
6 6 5 4 2 3 4 4 5 5 4 4 4 3 4 5 6 5 5 5 6 6 3 2 2 4 3 1 1 2 3 2 2 1 3 3 1 3 7 9 9 7 4 4 5 4 2 2 2 2 3 4 4 3 4 4 5 5 2 3 3 3 4 1 2 2 3 2 3 4 6 5 8 11 14 17 16 14 15 20 24 27 30 29 28 28 27 28
1 1 2 4 7 10 11 10 10 9 5 3 3 3 3 3 3 4 5 4 6 8 6 4 2 3 3 3 1 2 4 3 3 2 3 3 1 3 5 6 7 6 3 7 10 4 1 3 2 2 3 4 4 6 8 8 7 8 6 1 3 3 4 3 1 3 3 4 4 6 6 10 12 12 14 16 14 10 13 20 25 28 30 30 29 29 28 28
2 1 1 2 6 9 10 11 10 7 3 1 1 1 3 4 2 2 5 4 4 5 5 5 5 2 3 5 1 2 4 2 4 3 2 2 2 1 2 3 5 5 3 6 10 4 1 3 2 2 4 4 6 10 12 11 10 10 9 2 4 3 4 3 2 3 3 3 6 6 8 11 12 12 15 15 12 10 14 21 25 28 31 31 31 30 29 29
1 3 3 3 2 3 4 5 6 6 5 5 2 0 3 5 2 2 3 2 3 4 3 4 6 5 5 5 2 2 5 1 3 2 1 2 3 2 1 3 2 4 4 4 6 4 1 3 1 2 6 7 8 11 12 10 8 8 8 3 3 2 3 4 3 4 2 4 7 8 10 12 13 13 13 13 14 16 18 24 29 32 34 33 31 31 30 30
5 6 5 5 4 4 5 5 7 8 6 4 3 2 3 5 3 2 3 1 2 5 7 3 3 5 5 5 3 2 3 2 1 0 0 1 3 2 1 1 3 5 6 3 3 4 1 1 3 5 8 9 9 11 9 7 6 7 7 2 2 1 2 2 3 4 5 7 8 9 12 14 12 11 12 16 22 23 24 28 31 33 34 32 31 31 31 32
6 5 6 9 8 7 6 4 5 7 5 4 3 2 2 5 4 3 4 5 1 3 7 4 3 3 3 5 5 3 2 3 1 2 1 1 2 0 1 1 1 3 5 3 2 4 2 2 6 5 6 8 8 8 7 5 8 11 6 2 3 1 2 2 2 3 5 7 8 10 12 13 10 12 17 22 25 24 25 28 30 31 32 32 32 32 33 33
5 8 12 13 7 4 4 2 1 3 3 4 3 1 1 4 4 4 4 6 5 4 4 4 3 2 1 4 6 3 3 4 3 5 4 3 3 1 1 2 3 3 3 3 2 3 2 2 5 4 4 7 8 8 10 10 12 13 6 3 2 1 1 2 3 2 3 5 8 10 10 9 9 14 19 21 23 24 25 27 30 31 32 32 33 34 34 34
11 13 13 10 5 4 3 2 3 3 3 3 3 2 3 5 5 3 2 4 6 6 4 4 4 3 2 4 3 2 4 4 5 6 5 5 5 3 1 2 3 2 2 2 0 0 1 1 3 3 4 7 8 10 11 11 10 9 2 3 2 1 3 5 5 3 4 5 6 8 8 9 11 14 14 15 19 22 25 28 32 33 32 33 36 36 34 32
Wind_Direction
324 348 116 47 69 73 32 353 335 344 338 312 286 273 257 241 231 220 215 202 179 169 173 173 168 165 167 168 168 166 169 150 112 302 271 252 252 253 260 287 306 312 324 321 335 354 334 307 273 239 249 246 236 249 237 222 235 232 239 242 255 264 273 297 322 347 345 330 330 337 343 337 320 323 321 311 290 275 279 283 286 280 263 253 251 255 260 267
303 291 274 348 20 32 4 335 325 333 339 317 295 270 244 227 217 208 201 197 190 184 182 177 156 156 169 173 179 188 207 244 288 262 252 253 260 257 261 283 303 313 321 325 343 329 295 283 269 236 248 250 234 232 224 219 224 226 250 256 260 266 282 305 325 334 333 333 328 326 332 327 315 316 312 302 293 293 293 296 295 285 279 269 250 242 249 259
296 299 310 337 337 338 341 326 320 322 324 311 295 276 247 222 209 204 200 202 207 207 199 188 177 161 173 184 198 219 240 279 283 253 240 255 265 256 269 287 301 316 321 329 322 257 263 275 272 246 252 254 240 220 210 226 221 219 232 250 258 277 294 308 319 324 331 340 331 316 318 314 305 307 306 305 304 298 289 284 285 286 304 319 304 276 258 256
292 298 305 319 320 325 325 316 316 316 314 306 289 270 252 228 214 210 208 212 216 215 204 193 199 198 179 180 206 226 251 289 267 232 234 253 264 260 279 299 308 323 325 330 339 278 262 264 261 258 260 261 257 241 224 241 236 217 227 256 280 296 303 303 310 326 356 346 319 304 304 302 306 312 307 308 305 289 277 279 292 309 320 323 321 315 305 286
283 283 285 284 289 307 310 306 308 310 306 292 271 252 243 233 222 219 217 217 218 218 212 203 199 208 205 179 238 215 234 296 215 209 232 250 263 274 295 314 317 336 334 357 15 331 295 267 257 256 253 260 268 252 233 243 247 249 254 267 282 291 293 292 301 332 2 330 305 296 296 303 311 307 298 298 285 272 280 287 297 305 308 311 313 311 314 316
270 272 277 278 274 289 295 297 298 299 296 280 261 244 236 230 226 223 221 219 217 215 212 208 208 212 206 227 256 218 219 288 215 211 227 248 278 296 311 326 334 348 353 24 6 306 285 265 248 248 248 254 270 264 257 256 249 253 260 270 286 292 291 296 305 318 324 312 294 289 292 301 305 293 289 284 267 269 279 287 295 297 300 305 310 309 305 309
266 267 273 282 291 292 290 291 291 290 284 272 260 248 235 225 223 219 219 219 215 214 214 211 212 209 208 227 237 223 231 259 256 234 242 271 291 308 322 339 347 356 17 13 313 289 290 271 254 266 269 262 275 276 284 297 288 265 270 278 284 288 289 297 304 301 300 292 282 287 291 293 287 286 292 279 271 275 282 290 298 302 307 306 310 316 307 308
270 267 268 285 302 299 293 290 289 288 275 261 256 249 237 224 218 214 215 216 213 214 212 211 215 211 212 219 223 244 242 232 231 252 270 277 297 324 335 350 0 15 17 331 291 293 297 278 268 283 292 289 297 302 311 312 287 260 275 286 281 282 289 298 299 293 289 282 281 284 281 277 275 285 287 276 279 287 290 301 320 326 329 330 326 325 322 326
270 271 278 296 304 300 301 302 300 296 272 255 251 245 237 223 216 214 214 215 212 211 209 211 214 209 213 217 236 267 237 207 219 265 269 278 327 337 346 358 0 5 336 292 296 298 291 296 305 321 321 304 300 299 306 301 271 295 311 307 302 294 293 294 290 287 285 282 282 282 278 277 278 287 282 275 284 302 328 0 4 356 351 348 348 348 358 1
270 276 296 308 311 311 318 320 321 323 293 262 253 242 231 219 213 212 213 216 213 210 209 208 206 206 207 211 252 269 224 204 217 241 254 298 323 331 359 3 339 321 297 292 301 286 289 314 320 319 309 298 303 295 285 272 274 312 314 302 295 290 287 283 278 276 276 279 280 282 285 278 276 285 274 279 311 23 38 31 8 12 20 22 29 30 34 34
268 286 311 318 330 341 338 336 353 20 41 81 137 193 205 209 207 208 210 211 210 208 205 199 198 199 180 212 262 258 211 211 210 226 264 302 310 322 337 328 318 292 284 288 290 279 280 302 307 300 287 289 314 304 284 274 284 298 302 295 285 282 281 273 268 265 260 265 281 287 288 276 263 238 251 266 331 33 35 29 31 40 41 43 43 38 34 31
267 307 325 334 5 10 9 29 51 60 81 91 105 135 164 181 190 201 203 199 200 198 193 188 185 185 176 249 257 247 241 263 272 268 278 300 306 317 321 309 312 291 263 271 293 275 245 267 290 281 284 308 316 307 301 309 302 292 290 291 284 284 280 266 256 245 234 200 30 315 298 277 207 215 248 257 331 34 47 47 51 49 45 45 41 32 26 22
278 329 338 18 46 42 51 68 77 80 87 94 106 122 138 153 171 184 189 188 188 181 175 176 173 178 199 262 252 246 273 285 288 284 286 303 310 310 315 313 310 297 263 246 259 250 242 264 280 271 286 302 304 300 297 294 288 279 274 275 285 299 285 256 201 158 157 153 114 340 315 343 160 202 245 69 76 63 60 54 52 48 42 40 36 32 27 22
304 338 9 75 76 74 73 75 78 81 86 93 101 108 119 131 148 158 166 166 163 161 158 162 162 168 225 262 260 265 281 285 282 281 290 308 319 309 316 326 321 308 282 247 250 252 255 271 272 272 274 260 273 300 297 283 272 260 266 265 267 302 270 142 122 138 139 151 144 103 243 332 43 91 52 63 81 75 67 56 51 47 43 40 36 34 29 26
316 328 94 100 104 94 81 78 77 81 84 86 93 99 105 112 122 129 136 139 139 141 141 151 163 170 252 256 261 282 279 275 279 290 306 305 315 308 303 310 306 300 290 263 259 262 263 265 258 269 271 240 259 290 291 271 255 224 241 278 222 191 245 157 137 165 169 141 153 148 251 288 65 60 54 65 78 76 70 59 54 50 46 42 39 37 32 27
250 189 127 125 123 99 83 80 78 83 84 86 92 94 100 106 109 114 119 123 124 131 127 116 168 209 278 264 278 312 285 234 278 306 322 309 303 289 270 277 287 291 294 280 270 271 260 246 250 261 267 259 253 261 287 284 266 195 182 280 274 239 270 203 158 196 193 130 162 194 274 292 83 58 59 66 74 74 72 63 57 52 48 45 41 39 35 29
212 159 142 140 129 105 88 84 85 89 88 90 93 94 101 104 106 107 106 115 123 132 132 108 164 239 270 267 303 354 137 227 292 313 318 312 301 291 282 281 278 278 288 289 275 254 235 230 240 254 246 239 255 269 301 295 301 69 174 261 275 278 304 311 266 209 180 176 195 215 223 255 270 60 61 64 73 75 71 64 60 54 50 47 43 41 37 32
195 160 158 149 134 118 97 90 95 95 89 87 90 94 97 102 107 106 106 112 115 130 169 167 184 233 251 273 309 323 205 276 306 311 308 311 311 303 294 272 263 264 261 257 238 212 212 219 217 258 255 222 232 223 218 269 312 335 295 277 292 303 307 298 291 162 169 201 224 234 245 264 261 81 68 63 72 74 70 66 62 57 51 48 44 42 39 35
184 163 169 163 149 135 110 100 104 101 88 78 82 78 75 90 102 104 124 119 106 263 329 166 224 281 303 11 348 286 272 293 307 306 306 317 321 318 308 273 255 262 259 240 195 190 199 221 231 258 269 242 233 207 216 264 300 310 309 304 293 297 290 284 286 157 188 237 224 239 262 275 278 92 78 69 73 74 72 69 62 58 53 48 45 42 40 37
186 167 174 181 168 149 127 109 114 113 90 72 78 70 55 59 121 124 151 190 250 279 315 296 283 301 306 317 308 297 300 308 310 301 314 329 328 319 292 258 247 249 255 251 166 143 142 289 254 243 257 275 321 352 324 315 323 320 314 297 281 283 281 280 274 132 80 6 251 253 267 277 47 91 85 77 75 71 71 69 64 59 53 48 46 42 40 38
195 175 178 188 181 165 150 129 132 127 96 65 72 60 10 338 328 108 178 219 235 286 303 294 302 300 297 297 293 302 315 312 259 275 324 347 338 318 261 228 248 236 217 235 223 104 104 261 252 259 293 328 358 0 353 341 324 311 293 284 283 270 273 290 63 127 108 98 268 269 272 284 77 88 81 77 74 69 69 70 66 61 57 51 45 41 38 35
203 191 185 188 187 181 173 163 166 145 107 64 57 27 335 326 341 19 326 234 207 357 359 346 8 339 312 322 316 327 325 292 174 167 344 355 330 300 339 288 268 262 163 194 223 145 223 237 258 6 11 360 346 337 336 319 299 290 280 274 274 270 281 323 90 137 147 128 270 267 268 344 88 89 80 81 82 81 76 74 71 64 59 51 44 39 33 29
211 206 195 190 189 189 190 194 211 208 214 27 50 354 307 304 6 352 317 278 140 48 30 26 60 52 325 355 7 359 322 317 58 103 349 351 333 288 303 307 286 295 271 217 246 272 263 226 51 23 13 340 324 316 289 282 279 262 255 259 267 313 336 336 77 316 282 262 267 268 270 105 106 98 86 88 93 93 84 78 73 64 59 52 46 39 30 28
221 216 203 195 192 192 202 216 240 246 273 301 303 302 282 278 338 334 314 276 155 77 53 78 84 42 17 24 3 5 350 355 14 343 331 331 323 300 283 309 310 292 282 298 311 286 293 18 23 349 357 342 324 313 298 293 294 276 265 295 296 346 358 324 315 315 298 270 258 261 275 200 144 123 106 103 98 92 84 78 71 61 57 51 45 39 31 30
228 226 214 203 195 194 210 233 258 265 272 280 286 290 279 269 287 331 323 251 163 99 54 71 75 20 16 336 352 358 337 9 2 334 340 335 313 296 284 291 272 303 23 3 339 292 300 0 359 342 358 342 307 307 354 21 317 311 25 19 353 351 339 314 311 315 307 293 261 176 290 248 149 134 127 123 103 88 79 74 68 60 54 47 43 37 31 32
233 231 223 214 203 193 200 233 272 291 277 264 272 278 277 270 284 325 322 236 148 96 356 19 17 4 6 349 347 330 262 34 11 1 8 1 351 306 300 265 207 3 27 352 325 271 311 28 18 2 349 322 299 283 25 30 330 301 291 341 346 334 310 292 296 306 285 293 298 152 257 274 158 142 135 127 108 93 80 69 64 59 52 47 42 36 33 32
234 232 227 219 207 187 178 195 257 290 266 268 283 272 262 272 295 315 299 201 93 62 19 33 24 352 356 359 358 342 293 37 314 7 10 356 3 339 303 347 188 28 43 335 333 322 166 52 40 18 353 326 330 341 16 20 342 277 256 310 324 302 286 280 284 281 261 285 283 221 214 243 223 140 133 125 105 91 78 65 58 54 50 46 41 36 34 32
233 231 224 212 204 191 186 189 206 249 251 271 291 266 245 274 308 319 281 179 66 27 7 12 345 353 348 356 15 40 56 10 295 359 14 24 27 356 266 11 352 340 15 328 320 350 35 46 42 22 4 347 6 18 10 11 316 240 246 285 289 275 272 275 274 265 269 292 293 264 223 235 244 130 142 130 97 77 70 65 51 47 45 41 37 34 32 29
232 228 219 207 197 192 197 204 205 244 259 262 271 251 240 284 315 310 247 209 39 70 19 21 57 353 338 321 35 59 65 28 27 358 15 36 27 8 240 359 339 302 321 249 244 306 54 56 50 34 0 351 356 13 27 351 245 268 293 284 275 262 256 257 244 261 286 275 272 280 271 262 248 133 159 119 80 52 52 62 49 44 42 37 33 29 26 23
230 220 213 204 195 192 200 214 220 242 267 254 249 243 254 283 291 253 243 245 48 88 12 36 71 339 341 341 75 38 53 48 21 344 12 58 29 22 357 306 321 287 282 224 249 285 86 78 69 75 15 316 308 297 213 244 271 321 312 288 283 272 248 214 196 217 293 275 266 293 346 355 37 104 68 54 62 31 34 55 45 40 39 35 30 25 21 18
222 213 210 204 201 192 191 214 232 239 254 240 223 262 284 272 246 252 20 138 81 17 343 45 33 344 358 50 53 11 26 38 3 351 35 92 35 26 25 348 341 345 72 204 254 162 106 90 85 83 348 310 287 261 229 249 285 333 299 290 316 304 285 183 176 171 192 276 264 314 27 13 254 92 70 78 72 51 45 50 40 34 33 31 28 24 18 13
205 204 200 193 193 187 184 212 238 231 240 232 221 270 283 239 225 31 43 196 246 358 6 85 16 353 5 47 9 1 5 6 0 9 50 82 61 39 41 29 351 355 39 357 332 104 110 110 186 157 305 317 300 291 306 279 271 303 299 325 344 334 337 331 295 243 245 279 291 19 13 359 192 81 84 87 67 56 54 52 45 33 25 22 20 17 12 9
147 169 173 174 178 183 190 205 222 223 229 222 216 254 269 255 36 41 9 355 263 324 303 246 325 321 307 331 3 354 353 303 338 348 131 104 92 67 56 38 8 4 339 326 344 347 356 282 276 72 1 293 327 4 348 311 314 332 349 4 356 337 334 308 294 296 277 289 315 332 337 321 150 86 79 81 66 62 59 52 46 36 25 14 9 7 4 4
120 143 150 163 171 175 188 194 202 213 197 187 206 241 274 35 71 179 356 29 45 250 233 272 309 296 303 66 35 354 45 206 332 11 39 78 80 58 49 33 16 9 304 300 12 338 309 314 296 25 330 295 8 66 210 276 303 325 336 330 310 312 317 292 299 310 295 297 305 309 314 306 150 106 103 100 85 69 56 45 35 29 22 7 358 359 0 360
104 122 134 150 165 169 176 175 183 188 171 179 235 250 316 50 69 59 23 17 356 332 325 320 292 262 137 106 139 38 49 114 27 35 29 40 54 39 39 22 13 13 340 329 14 339 335 314 194 172 256 292 33 124 196 302 305 286 324 327 258 271 314 280 274 281 286 290 294 289 295 45 70 144 138 111 87 62 44 32 20 12 9 3 354 356 358 357
90 98 123 147 161 169 172 170 171 165 169 229 269 237 72 54 19 19 4 315 317 330 309 296 304 308 52 111 134 33 48 142 4 38 73 69 57 45 49 36 23 23 19 2 308 329 355 285 218 152 241 234 77 108 309 354 341 289 333 7 249 249 210 258 276 276 284 280 279 285 268 91 103 160 135 84 60 46 33 19 10 3 1 358 354 355 355 354
79 73 87 133 159 169 177 179 170 156 192 274 329 59 75 63 2 10 358 323 314 307 302 310 28 350 5 45 31 7 358 324 325 332 112 117 49 26 13 25 42 28 9 358 298 67 42 287 264 213 235 196 117 79 43 338 353 1 308 331 311 275 184 201 285 288 297 280 272 290 285 274 225 169 94 47 26 21 16 6 3 1 359 354 348 348 350 352
80 65 52 77 145 158 174 181 163 158 265 286 93 70 32 53 20 18 6 330 303 277 318 18 60 11 10 5 2 1 355 353 342 348 62 101 357 26 9 357 28 7 347 344 314 351 6 302 274 212 241 169 124 87 54 264 266 232 286 315 15 70 324 326 313 307 295 282 276 279 279 285 25 75 38 21 12 2 348 351 355 348 349 345 342 344 347 347
84 68 48 60 115 125 133 154 153 196 284 290 106 86 52 72 42 21 5 341 308 297 342 37 21 43 42 10 332 8 10 359 336 347 39 30 358 39 33 1 341 340 336 332 313 327 325 276 285 262 253 232 148 124 52 274 262 261 326 336 89 152 276 307 296 291 282 278 281 283 279 304 66 48 24 17 9 347 330 327 318 321 344 349 346 345 342 340
85 76 51 64 103 109 104 111 119 295 314 52 74 70 68 91 69 28 14 10 348 346 19 29 350 15 39 38 96 27 0 334 338 1 33 25 35 58 34 12 327 326 329 321 314 348 326 278 294 311 312 318 333 118 13 48 10 13 348 336 16 353 314 309 266 249 266 280 287 303 294 289 85 64 49 23 336 300 300 283 293 339 351 347 341 339 336 335
90 65 80 102 115 110 92 73 37 18 71 70 63 64 53 83 82 38 23 34 40 32 44 40 21 30 14 8 58 25 336 319 356 24 46 31 39 59 27 5 336 324 326 325 15 27 354 312 291 308 322 321 348 54 48 89 67 30 321 316 26 28 2 324 288 276 27 300 294 307 291 269 104 93 85 30 343 327 309 297 342 349 345 338 334 335 334 333
20 350 111 131 126 103 73 57 32 31 60 76 62 64 68 76 74 40 19 27 31 37 48 42 28 36 30 7 13 10 355 351 4 15 61 57 38 27 3 350 338 328 327 335 20 22 4 293 277 282 299 324 54 45 59 89 84 31 294 39 45 22 57 265 282 311 358 297 296 288 281 277 168 202 150 19 348 336 330 352 5 342 337 335 332 332 331 330
48 65 109 148 134 88 61 81 55 43 64 98 77 63 61 55 57 68 29 17 17 21 34 53 32 29 51 19 339 7 9 0 19 26 63 89 62 26 358 351 347 347 351 350 354 357 345 268 293 293 284 345 80 49 29 71 74 21 7 56 59 31 55 179 260 316 314 281 288 271 270 267 186 195 14 358 343 339 344 0 348 335 336 335 330 329 329 326
87 75 70 140 155 28 6 80 93 83 96 113 101 78 71 59 43 48 39 21 21 13 7 70 43 13 34 12 335 22 9 2 57 52 51 77 80 30 10 10 17 22 28 36 333 340 340 321 354 327 304 333 8 333 339 359 11 349 352 73 76 69 59 311 261 275 257 265 336 272 268 273 259 344 358 352 344 345 346 344 336 333 335 334 331 329 325 322
103 81 64 63 43 30 41 70 111 126 124 121 112 105 106 75 38 38 53 40 33 27 18 69 29 352 14 17 289 43 33 34 53 40 49 55 99 77 31 26 41 49 49 28 350 334 317 292 317 318 301 313 311 302 318 327 327 318 311 101 90 105 120 143 280 264 261 342 21 280 270 307 328 342 350 341 335 338 338 333 329 328 330 330 329 324 320 320
89 110 95 60 53 63 64 74 108 129 136 135 112 81 92 103 66 50 55 47 41 40 40 48 5 305 352 359 277 52 40 54 56 43 49 19 339 87 53 40 49 50 49 20 3 352 279 287 291 299 281 285 305 306 308 313 300 291 294 142 143 141 126 124 249 254 278 338 309 270 295 320 320 333 337 326 323 329 330 328 326 326 327 325 322 319 317 318
335 29 84 83 76 76 68 64 87 115 117 105 114 63 81 106 125 72 50 51 56 45 48 51 32 12 19 2 333 28 8 46 82 55 32 352 331 54 103 95 42 18 38 26 9 9 282 299 347 5 305 292 307 300 292 290 281 284 297 258 154 127 110 130 224 281 326 322 275 291 326 316 310 325 321 312 320 329 327 327 327 325 322 319 317 315 314 314
65 88 82 100 85 67 64 55 68 83 79 79 79 27 101 95 86 62 49 84 94 28 20 72 48 37 35 355 317 0 350 13 106 48 353 2 334 305 159 140 81 16 36 43 28 50 185 277 23 2 305 297 293 285 282 283 282 292 298 271 167 141 140 158 221 273 293 261 271 309 323 305 306 314 307 310 326 325 322 325 325 321 317 315 314 314 313 311
123 112 85 89 84 75 86 89 93 89 72 73 69 29 77 88 81 70 28 5 144 19 7 63 70 36 32 5 1 45 3 4 109 8 32 350 299 281 341 133 129 64 49 60 42 46 120 285 13 340 303 299 292 286 287 286 283 290 287 251 143 158 200 207 240 268 274 271 288 312 307 297 298 300 305 319 322 317 319 321 318 315 314 314 314 313 311 308
139 136 110 103 92 77 75 78 108 106 70 56 69 20 51 82 90 100 34 11 69 22 9 46 74 37 39 27 36 69 25 358 301 288 1 353 312 177 45 354 87 46 37 69 15 356 20 15 357 337 294 296 301 298 296 289 290 295 293 134 117 333 319 324 329 325 300 293 305 308 297 290 294 307 314 317 316 316 318 317 313 313 313 313 312 308 306 304
145 140 129 117 91 36 53 57 71 102 63 40 56 7 55 80 86 109 71 36 45 44 18 31 19 335 113 63 53 53 358 342 296 300 319 298 297 347 32 10 16 344 0 64 17 336 4 332 328 330 293 295 310 314 308 306 301 294 285 132 129 39 26 328 314 320 310 310 309 301 292 287 304 318 318 315 317 318 314 312 311 310 310 309 307 303 301 301
136 131 127 121 95 9 16 29 12 52 75 37 41 57 76 92 89 80 85 71 61 51 35 9 335 303 128 80 41 335 322 313 279 288 294 267 264 280 287 340 13 19 23 48 108 61 52 326 307 321 299 291 306 313 309 310 302 285 257 108 98 51 9 321 305 308 313 313 299 285 282 293 312 322 318 315 317 313 310 311 309 307 308 307 303 300 299 300